Regional Weather Roundup
Issued by NWS

Home | Current Version | Previous Version | Text Only | Print | Product List | Glossary On
Versions: 1 2 3 4 5 6 7 8 9 10 11 12 13 14 15 16 17 18 19 20 21 22 23 24 25 26 27 28 29 30 31 32 33 34 35 36 37 38 39 40 41 42 43 44 45 46 47 48 49 50
000
ASUS43 KBIS 211410
RWRND

NORTH DAKOTA REGIONAL WEATHER ROUNDUP
NATIONAL WEATHER SERVICE BISMARCK ND
900 AM CDT MON AUG 21 2017

NOTE: "FAIR" INDICATES FEW OR NO CLOUDS BELOW 12,000 FEET WITH NO
SIGNIFICANT WEATHER AND/OR OBSTRUCTIONS TO VISIBILITY.


NDZ001>003-009>011-017-211500-
NORTHWEST NORTH DAKOTA

CITY           SKY/WX    TMP DP  RH WIND       PRES   REMARKS
WILLISTON      MOSUNNY   63  44  50 N9        30.02R
MINOT          CLOUDY    60  50  69 SE8       29.94F
MINOT AFB      CLOUDY    60  51  73 S7        29.92S
$$

NDZ018>021-031>035-040>046-211500-
SOUTHWEST NORTH DAKOTA

CITY           SKY/WX    TMP DP  RH WIND       PRES   REMARKS
BISMARCK       CLOUDY    59  55  87 SW3       29.98R
DICKINSON      SUNNY     62  51  67 SW10      30.00R
GARRISON         N/A     61  54  77 SW8       29.96S
HETTINGER ARPT CLOUDY    56  50  80 S3        30.05R
$$

NDZ004>008-012>016-024-026-027-054-211500-
NORTHEAST NORTH DAKOTA

CITY           SKY/WX    TMP DP  RH WIND       PRES   REMARKS
GRAND FORKS    CLOUDY    64  51  62 S8        29.97F
GRND FRKS AFB  CLOUDY    62  50  65 CALM      29.98F
DEVILS LAKE    MOSUNNY   61  56  83 E6        29.98F
$$

NDZ022-023-025-028>030-036>039-047>053-211500-
SOUTHEAST NORTH DAKOTA

CITY           SKY/WX    TMP DP  RH WIND       PRES   REMARKS
FARGO          CLOUDY    61  58  90 N7        30.02R
JAMESTOWN      CLOUDY    62  54  74 SE9       29.97F
$$





USA.gov is the U.S. government's official web portal to all federal, state and local government web resources and services.